GW7159 Weather Reports


time (UTC)temp
F
wind
direction
speed
knots
gust
knots
rain 1hr
in
rain 24hr
in
rain mn
in
humidity
%
barometer
mb
20260506191530 77 330 1.7 7.8 0.00 0.00 0.00 29 1019.2
20260506191010 77 348 3.5 7.8 0.00 0.00 0.00 30 1019.3
20260506190509 77 241 3.5 5.2 0.00 0.00 0.00 29 1019.3
20260506190030 77 274 1.7 7.0 0.00 0.00 0.00 30 1019.3
20260506185510 76 352 3.5 7.0 0.00 0.00 0.00 30 1019.3
20260506185011 76 198 1.7 6.1 0.00 0.00 0.00 31 1019.3
20260506184531 75 24 1.7 7.0 0.00 0.00 0.00 35 1019.3
20260506184008 74 10 2.6 7.8 0.00 0.00 0.00 34 1019.4
20260506183509 74 360 4.3 7.8 0.00 0.00 0.00 34 1019.4
20260506183030 74 350 3.5 8.7 0.00 0.00 0.00 34 1019.4
20260506182510 74 250 2.6 8.7 0.00 0.00 0.00 34 1019.5
20260506182011 74 321 3.5 8.7 0.00 0.00 0.00 36 1019.5
20260506181529 73 5 1.7 5.2 0.00 0.00 0.00 36 1019.5
20260506181011 72 5 2.6 5.2 0.00 0.00 0.00 37 1019.5
20260506180517 73 325 1.7 4.3 0.00 0.00 0.00 36 1019.5
20260506180028 72 348 1.7 4.3 0.00 0.00 0.00 38 1019.5
20260506175509 70 15 1.7 4.3 0.00 0.00 0.00 39 1019.5
20260506175008 70 246 0.9 4.3 0.00 0.00 0.00 38 1019.6
20260506174529 69 311 0.9 4.3 0.00 0.00 0.00 39 1019.6
20260506174011 69 0 0.9 5.2 0.00 0.00 0.00 40 1019.7
20260506173510 68 65 1.7 5.2 0.00 0.00 0.00 40 1019.7
20260506173027 68 56 1.7 5.2 0.00 0.00 0.00 42 1019.7
20260506172510 67 305 0.9 4.3 0.00 0.00 0.00 41 1019.8
20260506172011 67 305 1.7 4.3 0.00 0.00 0.00 42 1019.8
20260506171538 66 360 0.9 5.2 0.00 0.00 0.00 41 1019.7
20260506171010 67 278 0.9 5.2 0.00 0.00 0.00 42 1019.7
20260506170509 66 275 1.7 5.2 0.00 0.00 0.00 42 1019.6
20260506170027 66 303 2.6 5.2 0.00 0.00 0.00 43 1019.6
20260506165511 65 0 0.0 2.6 0.00 0.00 0.00 44 1019.6
20260506165009 65 306 0.9 2.6 0.00 0.00 0.00 44 1019.6
20260506164530 63 36 0.9 3.5 0.00 0.00 0.00 45 1019.6
20260506164013 64 40 1.7 4.3 0.00 0.00 0.00 45 1019.6
20260506163511 64 47 2.6 4.3 0.00 0.00 0.00 45 1019.6
20260506163031 64 143 0.9 2.6 0.00 0.00 0.00 46 1019.7
20260506162508 63 113 1.7 4.3 0.00 0.00 0.00 48 1019.6
20260506162011 63 165 0.9 4.3 0.00 0.00 0.00 46 1019.6
20260506161537 63 145 1.7 3.5 0.00 0.00 0.00 48 1019.6
20260506161013 62 121 0.9 3.5 0.00 0.00 0.00 49 1019.6
20260506160511 61 82 1.7 6.1 0.00 0.00 0.00 49 1019.6
20260506160040 62 142 2.6 6.1 0.00 0.00 0.00 50 1019.7
20260506155511 61 100 1.7 3.5 0.00 0.00 0.00 52 1019.7
20260506155011 60 86 1.7 3.5 0.00 0.00 0.00 52 1019.7
20260506154532 59 133 0.0 3.5 0.00 0.00 0.00 53 1019.7
20260506154011 60 125 1.7 3.5 0.00 0.00 0.00 54 1019.7
20260506153509 59 124 0.9 3.5 0.00 0.00 0.00 55 1019.7
20260506153029 59 71 1.7 3.5 0.00 0.00 0.00 56 1019.6
20260506152509 58 110 0.0 1.7 0.00 0.00 0.00 57 1019.5
20260506152012 58 116 0.0 2.6 0.00 0.00 0.00 56 1019.6
20260506151535 58 129 0.0 2.6 0.00 0.00 0.00 57 1019.6
20260506151013 57 178 0.0 1.7 0.00 0.00 0.00 57 1019.6
20260506150513 57 111 0.9 2.6 0.00 0.00 0.00 59 1019.6
20260506150033 56 141 0.9 2.6 0.00 0.00 0.00 59 1019.5
20260506145507 56 138 1.7 2.6 0.00 0.00 0.00 60 1019.5
20260506145012 56 221 0.9 3.5 0.00 0.00 0.00 59 1019.6
20260506144529 56 204 0.9 4.3 0.00 0.00 0.00 61 1019.5
20260506144018 55 223 0.9 7.0 0.00 0.00 0.00 62 1019.5
20260506143510 54 213 1.7 7.0 0.00 0.00 0.00 64 1019.5
20260506143041 54 227 2.6 5.2 0.00 0.00 0.00 65 1019.3
20260506142509 53 293 1.7 5.2 0.00 0.00 0.00 66 1019.3
20260506142009 53 235 1.7 7.8 0.00 0.00 0.00 66 1019.5
20260506141529 52 252 2.6 7.8 0.00 0.00 0.00 67 1019.3
20260506141009 52 236 2.6 7.0 0.00 0.00 0.00 68 1019.3
20260506140511 52 230 2.6 7.0 0.00 0.00 0.00 68 1019.3
20260506140033 52 262 2.6 7.0 0.00 0.00 0.00 68 1019.2
20260506135509 51 237 1.7 7.0 0.00 0.00 0.00 68 1019.2
20260506135009 51 265 1.7 7.8 0.00 0.00 0.00 69 1019.2
20260506134531 51 232 3.5 7.8 0.00 0.00 0.00 70 1019.1
20260506134014 50 225 2.6 7.0 0.00 0.00 0.00 71 1018.9
20260506133510 50 220 3.5 7.0 0.00 0.00 0.00 71 1018.9
20260506133031 50 222 1.7 7.0 0.00 0.00 0.00 71 1018.8
20260506132516 50 203 3.5 7.0 0.00 0.00 0.00 72 1018.8
20260506132009 50 217 2.6 7.8 0.00 0.00 0.00 72 1018.8
20260506131529 49 225 2.6 8.7 0.00 0.00 0.00 72 1018.7
20260506131008 49 249 3.5 8.7 0.00 0.00 0.00 73 1018.7
20260506130515 49 225 4.3 8.7 0.00 0.00 0.00 73 1018.7
20260506130030 49 229 3.5 8.7 0.00 0.00 0.00 73 1018.7
20260506125508 49 232 3.5 8.7 0.00 0.00 0.00 73 1018.7
20260506125008 49 233 4.3 8.7 0.00 0.00 0.00 73 1018.7
20260506124529 49 231 4.3 7.8 0.00 0.00 0.00 72 1018.8
20260506124010 49 242 3.5 5.2 0.00 0.00 0.00 72 1018.8
20260506123510 49 235 0.9 1.7 0.00 0.00 0.00 71 1018.8
20260506123029 50 0 0.0 2.6 0.00 0.00 0.00 70 1018.8
20260506122509 50 257 0.9 5.2 0.00 0.00 0.00 70 1018.7
20260506122013 50 252 1.7 7.0 0.00 0.00 0.00 70 1018.7
20260506121528 50 238 2.6 7.0 0.00 0.00 0.00 70 1018.6
20260506121009 50 261 3.5 7.0 0.00 0.00 0.00 70 1018.6
20260506120514 50 252 2.6 7.0 0.00 0.00 0.00 70 1018.5
20260506120032 51 232 1.7 7.8 0.00 0.00 0.00 69 1018.5
20260506115511 51 232 3.5 9.6 0.00 0.00 0.00 69 1018.4
20260506115012 51 247 4.3 9.6 0.00 0.00 0.00 69 1018.4
20260506114539 51 234 3.5 9.6 0.00 0.00 0.00 68 1018.3
20260506114007 51 252 3.5 7.0 0.00 0.00 0.00 68 1018.3
20260506113512 51 225 2.6 7.0 0.00 0.00 0.00 69 1018.3
20260506113030 50 257 2.6 8.7 0.00 0.00 0.00 69 1018.2
20260506112511 51 220 3.5 8.7 0.00 0.00 0.00 68 1018.2
20260506112012 51 231 3.5 10.4 0.00 0.00 0.00 68 1018.2
20260506111527 51 240 2.6 11.3 0.00 0.00 0.00 67 1018.3
20260506111008 51 234 6.1 11.3 0.00 0.00 0.00 67 1018.3
20260506110516 51 246 4.3 11.3 0.00 0.00 0.00 67 1018.2
20260506110035 51 225 4.3 11.3 0.00 0.00 0.00 67 1018.3
20260506105511 52 236 6.1 14.8 0.00 0.00 0.00 66 1018.2
20260506105013 52 252 5.2 14.8 0.00 0.00 0.00 66 1018.2
20260506104531 52 293 6.1 13.0 0.00 0.00 0.00 66 1018.2
20260506104007 52 268 4.3 10.4 0.00 0.00 0.00 66 1018.2
20260506103511 52 242 4.3 10.4 0.00 0.00 0.00 66 1018.1
20260506103030 52 264 6.1 10.4 0.00 0.00 0.00 66 1018.0
20260506102509 52 224 4.3 14.8 0.00 0.00 0.00 66 1018.1
20260506102009 52 276 5.2 14.8 0.00 0.00 0.00 66 1018.1
20260506101545 52 243 7.0 14.8 0.00 0.00 0.00 66 1018.1
20260506101013 52 260 7.0 13.0 0.00 0.00 0.00 67 1018.0
20260506100513 52 256 5.2 12.2 0.00 0.00 0.00 66 1018.0
20260506100028 52 228 4.3 12.2 0.00 0.00 0.00 67 1017.9
20260506095512 52 276 5.2 13.9 0.00 0.00 0.00 67 1018.0
20260506095011 52 211 6.1 13.9 0.00 0.00 0.00 66 1018.0
20260506094528 52 246 6.1 12.2 0.00 0.00 0.00 67 1017.9
20260506094010 52 259 6.1 12.2 0.00 0.00 0.00 67 1018.0
20260506093514 52 230 3.5 9.6 0.00 0.00 0.00 67 1018.0
20260506093028 52 241 4.3 9.6 0.00 0.00 0.00 67 1017.9
20260506092510 51 248 2.6 7.8 0.00 0.00 0.00 67 1018.0
20260506092014 51 205 3.5 9.6 0.00 0.00 0.00 67 1017.9
20260506091530 52 223 4.3 11.3 0.00 0.00 0.00 66 1018.0
20260506091010 52 265 5.2 13.9 0.00 0.00 0.00 65 1018.0
20260506090507 52 207 5.2 13.9 0.00 0.00 0.00 65 1017.9
20260506090030 52 237 5.2 12.2 0.00 0.00 0.00 65 1018.0
20260506085509 52 225 5.2 9.6 0.00 0.00 0.00 65 1018.1
20260506085012 52 205 3.5 8.7 0.00 0.00 0.00 65 1018.2
20260506084530 53 261 4.3 9.6 0.00 0.00 0.00 64 1018.2
20260506084009 53 249 2.6 9.6 0.00 0.00 0.00 63 1018.2
20260506083512 53 238 2.6 9.6 0.00 0.00 0.00 63 1018.1
20260506083029 52 220 4.3 13.0 0.00 0.00 0.00 64 1018.1
20260506082509 52 240 2.6 13.0 0.00 0.00 0.00 64 1018.2
20260506082014 52 219 5.2 14.8 0.00 0.00 0.00 64 1018.1
20260506081528 53 242 5.2 14.8 0.00 0.00 0.00 64 1018.2
20260506081013 53 234 5.2 13.9 0.00 0.00 0.00 63 1018.3
20260506080511 53 229 6.1 13.9 0.00 0.00 0.00 63 1018.3
20260506073509 52 269 5.2 12.2 0.00 0.00 0.00 65 1018.3
20260506073028 52 221 5.2 12.2 0.00 0.00 0.00 65 1018.3
20260506072517 52 218 6.1 13.9 0.00 0.00 0.00 64 1018.3
20260506072009 52 247 5.2 13.9 0.00 0.00 0.00 64 1018.2
20260506071530 52 252 4.3 10.4 0.00 0.00 0.00 64 1018.2
20260506071010 52 241 3.5 9.6 0.00 0.00 0.00 63 1018.2
20260506070509 52 247 4.3 13.0 0.00 0.00 0.00 64 1018.1
20260506062511 52 244 4.3 10.4 0.00 0.00 0.00 65 1017.6
20260506062009 52 185 5.2 11.3 0.00 0.00 0.00 65 1017.6
20260506061530 52 229 4.3 11.3 0.00 0.00 0.00 65 1017.6
20260506061016 52 198 6.1 11.3 0.00 0.00 0.00 65 1017.5
20260506060510 52 209 4.3 8.7 0.00 0.00 0.00 65 1017.7
20260506051012 53 225 3.5 7.0 0.00 0.00 0.00 65 1017.4
20260506050513 53 244 2.6 9.6 0.00 0.00 0.00 64 1017.5
20260506045009 53 188 4.3 7.8 0.00 0.00 0.00 65 1017.2
20260506044528 53 190 3.5 11.3 0.00 0.00 0.00 65 1017.2
20260506044017 53 219 3.5 11.3 0.00 0.00 0.00 65 1017.0
20260506043510 53 217 4.3 10.4 0.00 0.00 0.00 65 1016.9
20260506043028 53 210 4.3 10.4 0.00 0.00 0.00 65 1016.9
20260506042510 53 201 3.5 9.6 0.00 0.00 0.00 65 1016.8
20260506042019 53 227 5.2 10.4 0.00 0.00 0.00 64 1016.8
20260506041537 53 251 5.2 10.4 0.00 0.00 0.00 65 1016.8
20260506041009 53 254 4.3 9.6 0.00 0.00 0.00 64 1016.8
20260506040513 53 211 3.5 10.4 0.00 0.00 0.00 64 1016.9
20260506040031 54 240 3.5 10.4 0.00 0.00 0.00 64 1016.8
20260506035508 54 230 3.5 9.6 0.00 0.00 0.00 63 1016.7
20260506035010 54 240 2.6 9.6 0.00 0.00 0.00 63 1016.7
20260506034530 54 224 3.5 9.6 0.00 0.00 0.00 63 1016.6
20260506034009 54 229 4.3 8.7 0.00 0.00 0.00 63 1016.6
20260506033509 54 240 1.7 7.8 0.00 0.00 0.00 63 1016.5
20260506033031 54 248 3.5 8.7 0.00 0.00 0.00 63 1016.6
20260506032513 54 194 3.5 8.7 0.00 0.00 0.00 63 1016.6
20260506032010 54 195 3.5 8.7 0.00 0.00 0.00 63 1016.5
20260506031531 55 179 3.5 8.7 0.00 0.00 0.00 62 1016.5
20260506031009 55 236 4.3 8.7 0.00 0.00 0.00 62 1016.3
20260506030513 55 207 2.6 6.1 0.00 0.00 0.00 61 1016.2
20260506030033 55 244 2.6 8.7 0.00 0.00 0.00 61 1016.2
20260506025508 55 233 3.5 9.6 0.00 0.00 0.00 61 1016.1
20260506025010 55 223 4.3 10.4 0.00 0.00 0.00 61 1016.1
20260506024527 55 230 4.3 10.4 0.00 0.00 0.00 61 1016.1
20260506024010 56 237 4.3 10.4 0.00 0.00 0.00 61 1015.9
20260506023510 56 221 5.2 10.4 0.00 0.00 0.00 60 1015.8
20260506023029 56 283 4.3 12.2 0.00 0.00 0.00 60 1015.8
20260506022509 56 271 4.3 12.2 0.00 0.00 0.00 59 1015.7
20260506022011 57 231 5.2 10.4 0.00 0.00 0.00 59 1015.6
20260506021528 57 236 4.3 12.2 0.00 0.00 0.00 59 1015.7
20260506021010 57 267 7.0 13.0 0.00 0.00 0.00 58 1015.6
20260506020513 57 265 7.8 13.0 0.00 0.00 0.00 59 1015.5
20260506020030 57 241 4.3 13.9 0.00 0.00 0.00 58 1015.5
20260506015510 58 248 7.0 13.9 0.00 0.00 0.00 58 1015.5
20260506015010 58 259 6.1 13.9 0.00 0.00 0.00 57 1015.4
20260506014541 58 248 6.1 13.9 0.00 0.00 0.00 57 1015.5
20260506014009 59 253 6.1 13.0 0.00 0.00 0.00 56 1015.5
20260506013510 59 259 4.3 13.0 0.00 0.00 0.00 57 1015.5
20260506013030 59 236 7.0 15.6 0.00 0.00 0.00 56 1015.5
20260506012510 59 199 7.0 15.6 0.00 0.00 0.00 56 1015.6
20260506012009 60 260 7.8 15.6 0.00 0.00 0.00 54 1015.4
20260506011528 60 247 7.0 13.9 0.00 0.00 0.00 54 1015.4
20260506011008 60 259 7.8 16.5 0.00 0.00 0.00 54 1015.3
20260506010510 60 240 7.0 16.5 0.00 0.00 0.00 53 1015.4
20260506010030 60 212 7.0 14.8 0.00 0.00 0.00 53 1015.4
20260506005510 60 242 7.8 14.8 0.00 0.00 0.00 53 1015.3
20260506005015 61 300 8.7 14.8 0.00 0.00 0.00 52 1015.2
20260506004537 61 232 7.0 14.8 0.00 0.00 0.00 52 1015.1
20260506004010 61 251 7.8 14.8 0.00 0.00 0.00 52 1015.0
20260506003510 61 242 8.7 14.8 0.00 0.00 0.00 51 1014.9
20260506003027 62 213 9.6 13.9 0.00 0.00 0.00 49 1014.9
20260506002511 62 268 6.1 15.6 0.00 0.00 0.00 50 1014.8
20260506002010 62 219 6.1 19.1 0.00 0.00 0.00 50 1014.8
20260506001528 63 234 7.8 17.4 0.00 0.00 0.00 49 1014.7
20260506001008 63 264 7.0 16.5 0.00 0.00 0.00 48 1014.7
20260506000509 63 265 7.8 14.8 0.00 0.00 0.00 48 1014.6
20260506000036 64 258 9.6 14.8 0.00 0.00 0.00 47 1014.6
20260505235514 64 230 7.0 17.4 0.00 0.00 0.00 47 1014.5
20260505235010 64 206 11.3 17.4 0.00 0.00 0.00 46 1014.5
20260505234528 64 223 7.8 18.2 0.00 0.00 0.00 45 1014.5
20260505234006 64 204 10.4 18.2 0.00 0.00 0.00 46 1014.4
20260505233516 65 245 9.6 18.2 0.00 0.00 0.00 45 1014.5
20260505233027 65 248 7.0 16.5 0.00 0.00 0.00 45 1014.5
20260505232512 65 227 7.8 16.5 0.00 0.00 0.00 45 1014.3
20260505232007 65 219 7.0 20.0 0.00 0.00 0.00 46 1014.3
20260505231529 64 250 7.8 20.0 0.00 0.00 0.00 46 1014.4
20260505231011 64 246 8.7 18.2 0.00 0.00 0.00 47 1014.5
20260505230514 65 215 7.0 18.2 0.00 0.00 0.00 47 1014.5
20260505230033 64 233 9.6 16.5 0.00 0.00 0.00 47 1014.5
20260505225511 64 251 7.0 16.5 0.00 0.00 0.00 47 1014.6
20260505225012 64 254 7.8 17.4 0.00 0.00 0.00 48 1014.5
20260505224536 63 252 7.0 17.4 0.00 0.00 0.00 48 1014.5
20260505224013 64 267 9.6 17.4 0.00 0.00 0.00 47 1014.6
20260505223514 65 208 9.6 16.5 0.00 0.00 0.00 46 1014.6
20260505223039 65 271 7.8 15.6 0.00 0.00 0.00 45 1014.7
20260505222507 65 216 7.0 15.6 0.00 0.00 0.00 45 1014.7
20260505222012 65 267 8.7 14.8 0.00 0.00 0.00 44 1014.5
20260505221529 65 277 8.7 14.8 0.00 0.00 0.00 44 1014.5
20260505221012 65 257 8.7 14.8 0.00 0.00 0.00 46 1014.6
20260505220508 64 239 8.7 16.5 0.00 0.00 0.00 45 1014.7
20260505220037 66 213 7.8 16.5 0.00 0.00 0.00 44 1014.7
20260505215515 66 229 8.7 16.5 0.00 0.00 0.00 44 1014.7
20260505215009 65 244 5.2 15.6 0.00 0.00 0.00 44 1014.7
20260505214547 65 257 8.7 15.6 0.00 0.00 0.00 44 1014.7
20260505214010 65 259 7.8 16.5 0.00 0.00 0.00 44 1014.7
20260505213510 66 245 7.0 16.5 0.00 0.00 0.00 44 1014.9
20260505213048 67 288 9.6 16.5 0.00 0.00 0.00 44 1014.9
20260505212509 65 205 6.1 17.4 0.00 0.00 0.00 44 1014.8
20260505212014 65 227 9.6 17.4 0.00 0.00 0.00 45 1014.8
20260505211530 65 218 8.7 17.4 0.00 0.00 0.00 45 1015.1
20260505211010 64 249 6.1 14.8 0.00 0.00 0.00 47 1014.9
20260505210510 63 234 6.1 17.4 0.00 0.00 0.00 48 1014.9
20260505210031 62 252 8.7 17.4 0.00 0.00 0.00 49 1014.9
20260505205518 63 270 7.0 20.0 0.00 0.00 0.00 48 1015.0
20260505205016 62 220 11.3 20.0 0.00 0.00 0.00 48 1014.9
20260505204533 64 198 8.7 16.5 0.00 0.00 0.00 48 1014.9
20260505204011 63 225 9.6 16.5 0.00 0.00 0.00 47 1014.8
20260505203510 64 186 7.0 13.9 0.00 0.00 0.00 47 1014.9
20260505203028 64 225 6.1 14.8 0.00 0.00 0.00 47 1014.9
20260505202509 63 202 6.1 14.8 0.00 0.00 0.00 48 1015.0
20260505202009 63 239 6.1 13.9 0.00 0.00 0.00 48 1014.9
20260505201544 64 231 4.3 13.9 0.00 0.00 0.00 47 1015.0
20260505201009 62 272 5.2 13.9 0.00 0.00 0.00 48 1014.9
20260505200512 62 241 5.2 13.9 0.00 0.00 0.00 47 1015.0
20260505200030 63 238 7.0 13.0 0.00 0.00 0.00 48 1015.0
20260505195512 65 269 5.2 12.2 0.00 0.00 0.00 45 1015.0
20260505195010 65 265 5.2 12.2 0.00 0.00 0.00 45 1015.1
20260505194531 63 246 7.8 12.2 0.00 0.00 0.00 47 1015.1
20260505194017 62 250 4.3 11.3 0.00 0.00 0.00 48 1015.2
20260505193509 62 248 4.3 11.3 0.00 0.00 0.00 47 1015.1
20260505193042 63 229 5.2 17.4 0.00 0.00 0.00 47 1015.2
20260505192509 62 217 5.2 17.4 0.00 0.00 0.00 49 1015.2
20260505192008 61 270 9.6 17.4 0.00 0.00 0.00 49 1015.3